{"data":{"norad_id":55303,"intl_designator":"2023-010AL","name":"STARLINK-5322","alt_names":[],"object_type":"PAYLOAD","status":"ACTIVE","operator":null,"country":"US","launch_date":"2023-01-19","launch_site_code":"AFWTR","launch_vehicle":null,"mission":null,"orbit_class":"UNKNOWN","rcs_meters":null,"size_class":null,"mass_kg":null,"dimensions":null,"purposes":["comms"],"wikipedia_slug":null,"has_3d_model":false,"image_url":null,"decayed_at":null,"tle_current":{"epoch":"2026-05-24T21:10:13.775232Z","epoch_age_seconds":92160,"freshness":"FRESH","line1":"1 55303U 23010AL  26144.88210388  .00000825  00000+0  76941-4 0  9992","line2":"2 55303  69.9995 212.1473 0003343 267.5676  92.5100 14.98325014184194","mean_motion":14.98325014,"eccentricity":0.0003343,"inclination_deg":69.9995,"raan_deg":212.1473,"arg_perigee_deg":267.5676,"mean_anomaly_deg":92.51,"bstar":7.6941e-5,"rev_number":18419,"period_min":96.107318942484,"perigee_km":569.74785514292,"apogee_km":574.39476441884,"semimajor_km":6950.2083097809,"source":"CELESTRAK","updated_at":"2026-05-25T13:38:17.754839Z"}}}